Location: Alafon
(8.4500°N, 4.2333°E)
Time: 16:19:06
(UTC+00:00)

Transit 2A - Pass Details

Date: 02 August 2021
Orbit: 595 x 964 km, 66.7° (Epoch: 18 September)

Event Time Altitude Azimuth Distance (km) Brightness Sun altitude
Rises 15:13:06 0° 351° (N) 3,466 9.7 39.7°
Reaches altitude 10° 15:15:38 10° 358° (N) 2,574 9.0 39.1°
Maximum altitude 15:21:24 46° 70° (ENE) 1,250 7.2 37.7°
Drops below altitude 10° 15:27:26 10° 141° (SE) 2,691 8.5 36.3°
Sets 15:30:07 0° 147° (SSE) 3,639 9.1 35.6°
